This is the latest recevied weather packets stored in our database for station/object KD4EED. If no packets are shown the sender has not sent any weather packets the latest 10 day(s).
| Time | Temp. | Humidity | Pressure | Rain* | Wind** | Luminosity | Snow |
|---|---|---|---|---|---|---|---|
| 1788559515 | 28.89° C | 53% | 1010.3 hPa | - | - | 494 W/m² | - |
| 1788559211 | 28.89° C | 53% | 1010.4 hPa | - | - | 509 W/m² | - |
| 1788558911 | 28.33° C | 54% | 1010.5 hPa | - | - | 523 W/m² | - |
| 1788558607 | 28.33° C | 54% | 1010.3 hPa | - | - | 536 W/m² | - |
| 1788558302 | 28.33° C | 53% | 1010.3 hPa | - | - | 543 W/m² | - |
| 1788558002 | 28.89° C | 52% | 1010.3 hPa | - | - | 551 W/m² | - |
| 1788557700 | 28.89° C | 50% | 1010.5 hPa | - | - | 563 W/m² | - |
| 1788557397 | 28.89° C | 51% | 1010.3 hPa | - | - | 570 W/m² | - |
| 1788557096 | 28.89° C | 51% | 1010.4 hPa | - | - | 577 W/m² | - |
| 1788556791 | 28.89° C | 52% | 1010.4 hPa | - | - | 585 W/m² | - |
| 1788556486 | 28.89° C | 52% | 1010.6 hPa | - | - | 591 W/m² | - |
| 1788556182 | 28.89° C | 52% | 1010.5 hPa | - | - | 596 W/m² | - |
| 1788555881 | 28.89° C | 53% | 1010.5 hPa | - | - | 606 W/m² | - |
| 1788555577 | 28.89° C | 51% | 1010.4 hPa | - | - | 609 W/m² | - |
| 1788555272 | 28.89° C | 52% | 1010.5 hPa | - | - | 615 W/m² | - |
| 1788554969 | 28.89° C | 52% | 1010.5 hPa | - | - | 618 W/m² | - |
| 1788554665 | 28.89° C | 51% | 1010.4 hPa | - | - | 618 W/m² | - |
| 1788554361 | 28.89° C | 51% | 1010.6 hPa | - | - | 621 W/m² | - |
| 1788554057 | 28.89° C | 52% | 1010.4 hPa | - | - | 622 W/m² | - |
| 1788553752 | 28.89° C | 50% | 1010.6 hPa | - | - | 624 W/m² | - |
| 1788553449 | 28.89° C | 52% | 1010.5 hPa | - | - | 621 W/m² | - |
| 1788553144 | 28.89° C | 51% | 1010.7 hPa | - | - | 618 W/m² | - |
| 1788552839 | 28.89° C | 50% | 1010.7 hPa | - | - | 618 W/m² | - |
| 1788552534 | 28.33° C | 51% | 1010.8 hPa | - | - | 617 W/m² | - |
| 1788552233 | 28.33° C | 51% | 1010.6 hPa | - | - | 615 W/m² | - |
* Rain since midnight (hover to see other rain measurements)
** Current wind speed in m/s (hover to see current wind gust speed)